Flag for Canada Weather past 2 weeks in Drummondville, Quebec, Canada

Now
54 °F

Cool.


Feels Like: 51 °F
Forecast: 42 / 67 °F
Wind: 9 mph from Southwest

Location: Nicolet

Current Time: Sep 20, 2014 at 11:08:38 AM

Latest Report: Sep 20, 2014 at 9:00 AM


Visibility: N/A

Pressure: 30.02 "Hg

Humidity: 73%

Dew point: 46 °F

Location of DrummondvilleLocation

Historic Weather in Drummondville — Graph

°F

Drummondville temperature yesterday

Maximum temperature yesterday: 52 °F (at 5:00 PM)
Minimum temperature yesterday: 32 °F (at 5:00 AM)
Average temperature yesterday: 42 °F

Past Weeks' High & Low Weather Summary

 TemperatureHumidityPressure
High82 °F (Sep 5, 1:00 PM)100% (Sep 13, 2:00 AM)30.43 "Hg (Sep 13, 2:00 AM)
Low32 °F (Sep 19, 5:00 AM)37% (Sep 9, 4:00 PM)29.48 "Hg (Sep 11, 1:00 PM)
Average55 °F79%30.07 "Hg
* Reported Sep 5 9:00 AM — Sep 20 9:00 AM, Drummondville, Weather by CustomWeather, © 2014

Note: Actual official high and low records may vary slightly from our data, if they occured in-between our weather recording intervals... More about our weather records

Advertising

Drummondville weather history for previous 24 hours

 ConditionsComfort  
Time TempWeatherWind HumidityBarometerVisibility
9:00 AM
Sep 20
54 °FCool.9 mph73%30.02 "HgN/A
8:00 AM51 °FCool.3 mph86%30.04 "HgN/A
7:00 AM44 °FQuite cool.1 mph96%30.06 "HgN/A
6:00 AM42 °FQuite cool.1 mph96%30.09 "HgN/A
4:00 AM36 °FChilly.2 mph100%30.13 "HgN/A
3:00 AM36 °FChilly.2 mph96%30.17 "HgN/A
2:00 AM36 °FChilly.2 mph96%30.19 "HgN/A
1:00 AM38 °FChilly.1 mph90%30.19 "HgN/A
12:00 AM39 °FChilly.3 mph83%30.19 "HgN/A
11:00 PM
Sep 19
39 °FChilly.2 mph83%30.22 "HgN/A
10:00 PM40 °FChilly.2 mph85%30.22 "HgN/A
9:00 PM41 °FQuite cool.2 mph85%30.23 "HgN/A
8:00 PM42 °FQuite cool.1 mph87%30.27 "HgN/A
7:00 PM44 °FQuite cool.1 mph84%30.29 "HgN/A
6:00 PM51 °FCool.No wind57%30.30 "HgN/A
5:00 PM52 °FCool.3 mph41%30.32 "HgN/A
4:00 PM51 °FCool.5 mph41%30.33 "HgN/A
3:00 PM51 °FCool.7 mph44%30.36 "HgN/A
2:00 PM50 °FCool.6 mph41%30.38 "HgN/A
1:00 PM49 °FCool.6 mph42%30.40 "HgN/A
12:00 PM49 °FCool.3 mph41%30.43 "HgN/A
11:00 AM47 °FCool.5 mph50%30.42 "HgN/A
Weather by CustomWeather, © 2014

See weather overviewHow to use our weather pages